Temperature
23 24 25 25 25 24 23 21 21 21 21 21 21 21 21 22 22 22 22 22 22 21 21 21 21 21 21 20 20 20 19 19 19 19 18 18 18 18 17 17 17 17 16 16
23 25 25 25 25 24 24 23 22 22 21 21 21 21 21 21 21 21 21 21 21 21 21 21 20 20 20 20 20 19 19 19 18 18 18 18 17 17 17 17 17 16 16 16
21 23 24 23 24 24 23 23 22 21 21 20 20 21 21 21 21 21 21 21 21 21 21 20 20 20 20 19 19 19 19 18 18 18 18 17 17 17 17 17 16 16 16 16
20 22 23 22 23 24 23 23 22 21 21 20 21 21 21 21 21 20 20 20 20 20 20 20 20 19 19 19 19 18 18 18 18 17 17 17 17 17 16 16 16 16 16 15
18 20 21 22 23 23 22 21 21 21 21 21 21 20 20 20 21 21 21 20 20 20 20 19 19 19 19 19 18 18 18 18 17 17 17 17 17 17 16 16 16 16 15 15
19 21 21 22 23 24 22 20 21 21 20 20 20 18 19 20 20 20 20 20 20 19 19 19 18 18 18 18 18 18 17 17 17 17 17 17 16 16 16 16 15 15 15 15
19 20 20 22 23 23 21 20 21 21 21 21 20 20 20 20 20 20 20 19 19 19 18 18 18 18 18 17 17 17 17 17 17 17 16 16 16 16 16 15 15 15 15 14
18 19 20 22 22 21 20 21 21 21 21 21 21 20 20 20 19 19 19 19 19 18 18 18 17 17 17 17 16 16 16 16 16 16 16 16 16 15 15 15 15 15 14 14
18 19 20 21 22 22 23 22 22 22 21 21 21 20 19 19 19 19 18 18 18 18 17 17 17 17 16 16 16 16 16 16 15 15 15 15 15 15 15 14 14 14 14 14
17 19 19 21 22 22 22 22 22 21 21 21 20 19 19 18 18 18 18 17 17 17 17 16 16 16 16 16 15 15 15 15 15 15 15 15 14 14 14 14 14 14 14 13
17 18 19 20 21 21 22 22 21 21 21 20 20 19 18 18 18 17 17 17 17 16 16 16 16 15 15 15 15 15 15 14 14 14 14 14 14 14 14 14 13 13 13 13
17 18 18 19 20 21 21 21 20 20 20 19 19 19 18 18 17 17 17 16 16 16 16 15 15 15 15 15 14 14 14 14 14 14 14 14 13 13 13 13 13 13 13 13
20 20 20 20 20 20 20 20 20 20 19 19 18 18 18 17 17 16 16 16 16 15 15 15 15 15 14 14 14 14 14 14 13 13 13 13 13 13 13 13 13 13 13 13
20 20 19 20 20 20 20 19 19 19 18 18 18 17 17 16 16 16 15 15 15 15 14 14 14 14 14 14 14 14 14 13 13 13 13 13 13 12 12 12 12 13 13 12
20 20 19 19 19 19 19 19 18 18 17 17 17 16 16 16 16 15 15 15 15 14 14 14 14 14 13 13 13 13 13 13 13 13 12 12 12 12 12 12 12 12 12 12
19 19 19 19 18 18 18 18 18 17 17 16 16 16 16 15 15 15 15 14 14 14 14 13 13 13 13 13 13 13 13 13 12 12 12 12 12 12 12 12 12 12 11 12
19 18 18 18 18 17 17 17 17 17 16 16 16 16 15 15 15 14 14 14 14 13 13 13 13 13 13 13 13 12 12 12 12 12 12 12 12 12 12 11 11 11 11 11
19 18 18 18 18 17 17 17 17 16 16 16 16 15 15 14 14 14 14 13 13 13 13 13 13 12 12 12 12 12 12 12 12 12 12 12 12 12 11 11 11 11 11 11
18 18 17 17 17 17 17 16 16 16 16 15 15 15 14 14 14 13 13 13 13 13 13 12 12 12 12 12 12 12 12 11 11 11 11 11 11 11 11 11 11 11 10 10
17 17 17 17 17 16 16 16 16 15 15 15 15 14 14 14 13 13 13 13 12 12 12 12 12 12 12 11 11 11 11 11 11 11 11 11 11 11 11 11 10 10 10 10
17 17 17 16 16 16 16 16 15 15 15 15 14 14 14 13 13 13 13 12 12 12 12 12 12 11 11 11 11 11 11 11 11 10 10 10 10 10 10 10 10 10 10 10
16 16 16 16 16 15 15 15 15 15 14 14 14 13 13 13 13 12 12 12 12 12 11 11 11 11 11 11 11 11 10 10 10 10 10 10 10 10 9 9 9 9 9 9
16 16 15 15 15 15 15 15 14 14 14 14 13 13 13 13 12 12 12 12 12 11 11 11 11 11 11 11 10 10 10 10 10 10 9 9 9 9 9 9 9 9 9 9
15 15 15 15 15 14 14 14 14 14 13 13 13 13 12 12 12 12 12 12 11 11 11 11 11 11 11 10 10 10 10 10 10 9 9 9 9 9 9 9 9 9 9 9
14 14 14 14 14 14 14 13 13 13 13 13 12 12 12 12 12 12 11 11 11 11 11 11 11 11 10 10 10 10 10 9 9 9 9 9 9 9 9 8 8 8 8 8
14 14 14 14 14 13 13 13 13 13 12 12 12 12 12 12 11 11 11 11 11 11 11 11 11 10 10 10 10 10 10 9 9 9 9 9 9 8 8 8 8 8 8 8
14 14 13 13 13 13 13 13 13 12 12 12 12 12 12 11 11 11 11 11 11 11 11 11 10 10 10 10 10 9 9 9 9 9 9 8 8 8 8 8 8 7 7 7
Wind_Speed
4 3 2 2 2 3 4 5 5 6 5 5 6 7 6 6 6 7 6 6 6 5 4 3 3 2 2 2 2 4 4 4 4 3 3 3 3 3 3 2 2 2 1 1
2 2 4 3 2 3 2 3 4 4 1 2 5 7 6 6 6 6 6 5 5 4 4 3 3 2 2 2 2 3 4 3 3 2 3 3 3 3 2 2 1 2 1 1
1 2 5 3 1 2 2 2 5 5 5 4 7 7 6 6 6 5 5 5 5 4 4 3 3 3 3 2 2 2 2 2 2 2 2 2 2 2 2 2 2 2 1 1
2 3 1 6 3 4 4 1 3 5 6 8 8 6 4 7 9 8 6 6 5 4 3 3 2 2 2 2 2 2 1 1 1 1 1 1 2 2 2 2 2 2 2 2
4 3 2 4 2 3 4 1 2 7 8 7 8 7 3 2 6 7 6 6 5 4 3 3 3 3 4 3 3 2 1 0 1 1 1 1 2 2 2 2 2 2 2 2
4 4 4 6 4 2 7 2 1 6 8 8 7 5 4 4 5 6 5 5 5 4 4 4 3 3 4 3 3 2 1 1 0 1 2 2 3 2 2 2 2 2 2 2
4 3 4 5 3 3 4 6 4 6 7 8 6 5 5 6 5 5 5 5 5 5 4 3 3 4 4 2 1 1 1 1 0 1 2 2 2 1 1 1 1 1 2 2
4 3 6 4 3 5 6 4 6 7 7 7 7 7 7 6 5 5 5 4 5 4 3 2 3 4 3 1 1 1 1 1 1 1 1 1 1 1 1 1 1 1 1 2
5 6 4 2 5 5 7 7 5 6 7 9 9 8 7 6 5 5 4 4 4 4 3 2 2 3 2 1 1 2 2 2 1 1 1 0 1 2 1 1 1 1 1 2
4 2 2 4 6 6 7 8 8 9 9 10 9 9 7 6 5 4 4 3 3 4 3 1 1 2 1 0 1 2 2 2 1 1 1 1 0 1 1 1 2 2 2 2
3 1 3 4 5 7 8 10 10 9 9 9 9 8 7 6 4 3 3 2 3 3 2 0 1 1 1 1 1 1 1 1 1 0 0 1 0 1 2 2 3 3 3 3
4 5 5 3 3 8 10 8 8 8 7 7 8 8 6 5 4 4 4 3 3 3 2 1 1 1 2 2 0 1 1 1 1 1 0 0 0 1 2 2 4 4 5 4
4 3 4 4 5 7 8 7 7 7 7 7 6 7 7 5 3 4 4 3 3 2 1 1 2 2 3 2 1 0 1 1 1 1 1 1 1 1 2 4 4 4 4 3
6 7 6 4 5 6 8 7 8 8 7 7 6 6 6 5 4 4 3 2 2 2 2 1 2 3 3 3 2 1 1 2 1 2 1 2 2 2 2 2 2 3 3 3
5 7 6 5 6 7 7 8 9 7 6 6 5 6 6 5 4 3 2 2 3 3 2 2 2 3 4 3 2 2 1 1 1 1 2 2 2 1 2 2 1 2 2 2
6 7 8 8 7 7 7 8 8 6 5 5 4 4 4 5 4 3 2 2 3 2 0 1 2 3 3 3 3 2 2 3 2 1 1 1 1 1 1 1 1 2 2 2
7 6 6 7 5 5 5 7 7 6 6 6 5 4 4 5 4 2 1 1 2 1 1 1 2 3 2 2 2 2 2 3 3 1 1 1 1 1 2 2 2 2 3 3
6 6 7 8 6 5 5 6 6 6 5 5 5 5 4 4 3 1 1 0 1 1 1 2 1 1 2 2 2 1 1 2 2 2 2 1 2 2 1 1 1 2 2 2
6 6 5 6 6 6 5 5 5 5 5 5 5 4 3 3 2 1 1 1 1 1 3 2 1 1 1 3 3 1 2 2 2 2 2 2 2 1 1 1 1 1 1 1
5 5 5 5 5 6 5 4 5 5 4 5 5 4 3 2 2 2 2 1 2 3 3 2 1 1 2 3 3 2 2 2 2 2 2 1 1 1 1 1 0 0 0 0
4 6 6 6 5 4 4 5 6 5 4 4 5 4 3 2 2 2 2 1 3 2 1 1 1 1 1 2 2 1 1 1 2 2 1 1 1 1 1 1 1 1 1 1
4 5 5 5 5 3 3 4 5 5 4 3 3 3 3 2 1 1 1 3 3 2 1 1 1 1 1 1 1 1 1 1 1 1 1 1 1 1 1 1 2 2 2 2
4 5 5 5 4 4 3 3 4 4 4 3 3 3 2 2 2 2 2 3 2 2 2 1 2 2 1 1 1 1 1 1 1 1 1 1 1 0 0 1 2 2 2 2
4 3 3 4 5 4 3 2 2 2 3 2 2 3 3 1 0 1 2 2 2 3 2 3 3 2 1 0 0 0 0 0 1 1 1 1 1 1 1 1 1 1 2 2
3 3 4 4 4 2 2 2 2 2 2 1 1 1 1 2 2 1 1 1 2 2 2 3 3 2 1 0 0 0 0 1 1 0 0 1 1 1 1 1 1 1 1 2
3 3 2 3 3 2 2 2 2 2 2 2 0 0 0 1 1 0 0 1 1 1 1 1 1 1 0 0 0 0 1 1 1 1 1 1 1 1 1 1 1 1 1 1
2 2 2 1 1 1 2 2 3 2 2 2 1 1 1 1 0 0 0 0 0 1 1 1 1 1 1 1 0 0 0 0 1 1 1 1 1 1 1 1 1 0 1 1
Wind_Direction
210 219 133 119 115 96 121 163 170 202 189 199 169 151 143 137 127 114 108 106 112 111 98 99 101 109 124 143 161 165 162 172 192 193 186 178 171 173 175 178 181 165 157 200
351 17 67 55 81 117 125 156 155 145 209 221 139 120 118 127 122 119 117 117 112 106 101 99 98 95 94 93 106 127 139 164 178 167 162 169 175 178 177 176 167 137 155 185
285 332 58 2 301 152 158 167 156 175 202 152 124 128 142 143 137 137 137 134 129 125 119 119 114 112 111 108 98 104 126 142 149 155 162 179 178 167 174 177 165 158 183 196
132 61 154 249 252 146 130 115 144 143 150 151 141 133 135 147 141 143 147 143 146 136 126 119 97 87 92 85 87 87 93 131 139 140 162 174 165 179 192 184 175 181 189 207
121 138 257 295 290 152 133 19 169 149 142 135 124 92 74 153 139 139 142 143 145 135 123 97 82 86 85 67 59 64 53 178 189 168 160 163 171 183 184 171 192 200 210 225
128 141 210 241 267 166 106 74 231 147 144 143 126 132 201 179 124 114 112 112 115 105 93 86 75 79 78 63 54 34 342 306 255 181 178 188 190 189 187 183 204 211 237 248
148 171 241 244 230 120 131 208 196 147 141 141 149 173 162 136 119 118 114 105 102 101 102 111 105 96 87 68 35 318 338 13 344 232 206 192 183 179 168 177 187 209 244 269
149 156 233 249 123 155 189 166 142 132 132 126 122 113 113 112 110 108 103 98 101 101 83 68 92 96 82 37 316 7 35 29 345 322 248 179 157 173 166 175 181 229 254 282
178 204 232 191 139 152 146 124 119 116 121 117 115 113 110 109 109 105 105 107 103 105 89 62 74 100 95 327 346 46 35 10 347 352 351 102 160 180 186 198 210 244 249 265
77 33 75 93 95 93 102 108 106 107 110 111 115 116 114 116 110 104 98 102 101 100 90 53 33 66 102 17 45 68 37 348 337 11 349 350 281 189 191 221 234 251 250 255
93 150 59 46 92 107 98 95 92 94 105 117 120 122 123 121 121 114 98 87 92 103 106 31 20 45 44 24 67 60 9 334 323 299 254 323 305 250 221 230 220 211 226 227
185 205 152 166 139 109 101 100 103 102 103 113 122 126 124 126 126 118 109 95 87 78 72 39 22 355 341 336 6 108 3 329 314 282 284 316 44 347 341 281 279 241 229 219
166 157 129 123 106 101 109 110 104 103 114 118 117 121 122 122 119 113 109 104 103 90 57 26 20 358 336 336 358 320 250 275 295 287 259 265 248 238 307 327 328 303 281 260
120 103 88 87 102 99 103 102 97 95 98 109 114 115 118 111 109 109 119 130 120 96 66 31 16 348 329 330 334 325 269 262 256 258 248 235 233 238 236 255 300 321 302 268
100 116 127 111 95 101 102 100 96 93 94 89 97 109 116 119 124 130 133 124 103 83 59 37 8 329 327 345 352 340 314 284 258 256 257 240 237 238 244 253 267 298 330 327
114 108 110 106 103 105 108 112 114 118 116 107 104 109 119 123 122 122 122 121 114 111 30 349 323 311 324 351 354 349 338 319 309 273 276 271 250 244 266 271 271 281 280 275
124 126 122 120 117 115 127 133 137 137 133 129 128 122 112 109 101 95 93 120 136 168 215 263 295 305 331 348 351 335 330 324 323 310 266 247 233 241 250 252 255 261 263 257
135 144 144 142 137 125 120 121 126 133 139 137 126 117 118 122 134 161 183 129 93 18 312 289 296 319 337 345 347 327 314 309 308 304 296 279 256 241 231 243 270 277 293 307
112 118 120 122 126 126 130 134 140 140 136 132 128 136 148 152 157 169 163 135 140 267 286 284 290 350 328 329 352 337 331 338 340 325 315 303 299 288 267 251 261 264 269 316
109 114 117 117 116 127 140 138 133 128 131 130 125 121 126 155 168 165 154 192 228 236 251 265 257 285 303 318 348 337 337 347 355 346 347 358 353 349 350 349 318 292 321 280
119 125 127 124 119 118 135 137 132 132 132 129 133 143 158 176 176 166 156 237 277 271 251 212 201 261 290 319 339 348 350 348 351 345 344 334 335 356 4 358 348 334 325 306
118 121 121 121 122 120 128 127 132 137 132 128 130 136 136 142 159 172 211 221 240 234 190 203 229 251 294 330 331 334 338 337 325 329 346 342 357 10 2 347 329 324 327 318
107 110 113 118 121 119 105 108 119 130 134 138 142 149 157 174 178 172 254 258 225 196 185 220 243 253 287 293 314 325 346 356 352 349 339 323 313 305 324 336 338 347 347 340
94 103 118 119 111 105 105 126 126 132 143 153 157 159 158 153 257 246 222 210 200 206 219 237 241 259 268 258 300 0 28 13 344 335 338 343 347 354 350 348 350 357 355 354
125 125 117 112 115 136 159 137 102 103 113 108 105 112 135 165 185 238 239 218 209 205 232 243 236 250 254 289 239 253 300 309 304 306 337 350 336 338 346 353 1 6 8 8
127 138 147 157 160 168 158 131 127 138 133 117 69 348 77 75 103 120 172 239 234 207 207 234 219 216 237 233 246 288 309 337 9 19 15 358 358 18 10 2 357 10 9 31
100 108 106 77 43 135 138 135 141 156 158 156 190 225 193 185 193 171 132 5 221 195 192 190 180 179 183 179 206 59 15 15 25 42 35 32 28 20 334 321 323 342 25 45
Height
1492 1488 1487 1490 1491 1492 1499 1505 1513 1510 1506 1501 1497 1496 1498 1500 1500 1501 1502 1503 1504 1505 1506 1507 1508 1508 1508 1508 1508 1508 1508 1508 1508 1508 1508 1508 1508 1508 1508 1508 1508 1507 1506 1506
1493 1486 1486 1491 1490 1490 1493 1496 1500 1502 1504 1496 1496 1496 1498 1500 1500 1501 1503 1504 1504 1505 1506 1507 1507 1508 1507 1507 1507 1507 1507 1506 1506 1506 1506 1506 1506 1506 1506 1506 1505 1505 1504 1504
1504 1493 1491 1503 1493 1491 1493 1492 1494 1502 1500 1495 1496 1497 1499 1500 1501 1502 1503 1504 1504 1505 1505 1506 1507 1507 1507 1506 1506 1506 1505 1505 1505 1504 1504 1504 1504 1504 1504 1503 1503 1503 1503 1502
1506 1502 1514 1502 1485 1484 1489 1490 1489 1492 1493 1493 1494 1497 1498 1499 1499 1501 1502 1503 1504 1505 1505 1506 1506 1506 1506 1506 1505 1504 1504 1503 1503 1503 1502 1502 1502 1501 1501 1501 1501 1501 1500 1500
1509 1512 1509 1495 1485 1484 1489 1495 1490 1490 1492 1494 1495 1498 1502 1501 1500 1500 1501 1502 1503 1504 1505 1505 1505 1505 1504 1504 1503 1503 1502 1501 1501 1501 1500 1500 1499 1499 1499 1499 1499 1498 1498 1497
1505 1510 1514 1497 1482 1480 1486 1499 1489 1488 1490 1492 1495 1503 1503 1501 1501 1501 1501 1502 1503 1504 1504 1504 1504 1503 1503 1502 1501 1501 1500 1499 1499 1499 1498 1498 1497 1497 1497 1497 1496 1496 1495 1495
1502 1506 1500 1484 1480 1481 1499 1498 1487 1487 1488 1490 1493 1496 1498 1499 1500 1500 1501 1502 1503 1503 1503 1503 1503 1502 1501 1500 1500 1499 1498 1498 1497 1497 1496 1495 1495 1495 1495 1494 1493 1493 1492 1492
1500 1505 1502 1478 1478 1483 1486 1482 1485 1486 1488 1491 1493 1495 1497 1499 1500 1501 1501 1502 1502 1502 1502 1502 1502 1501 1500 1499 1498 1498 1497 1496 1495 1494 1493 1493 1493 1492 1492 1491 1490 1490 1489 1488
1489 1491 1479 1475 1476 1478 1479 1481 1484 1486 1488 1490 1493 1495 1498 1499 1500 1501 1501 1501 1501 1501 1501 1501 1501 1500 1498 1498 1497 1496 1495 1493 1492 1491 1491 1490 1490 1489 1489 1489 1488 1487 1486 1485
1484 1482 1479 1478 1477 1479 1481 1482 1485 1486 1488 1491 1493 1496 1498 1499 1500 1500 1501 1501 1501 1500 1500 1499 1499 1498 1497 1496 1495 1494 1492 1491 1490 1489 1488 1488 1487 1487 1486 1486 1485 1484 1483 1483
1483 1482 1481 1481 1480 1481 1482 1483 1485 1487 1489 1491 1494 1496 1497 1498 1499 1500 1500 1500 1500 1499 1499 1498 1497 1496 1495 1495 1493 1492 1490 1489 1488 1486 1485 1485 1484 1484 1483 1483 1483 1482 1481 1480
1483 1479 1480 1482 1482 1482 1483 1485 1487 1488 1491 1492 1493 1495 1497 1498 1499 1499 1499 1499 1499 1498 1497 1496 1495 1495 1494 1493 1492 1490 1488 1487 1485 1484 1483 1482 1481 1481 1480 1480 1480 1479 1478 1477
1475 1477 1479 1481 1483 1484 1485 1486 1488 1489 1491 1492 1493 1494 1495 1497 1497 1498 1498 1498 1498 1497 1496 1495 1494 1493 1492 1491 1489 1488 1486 1485 1483 1482 1481 1480 1479 1478 1478 1477 1477 1476 1475 1475
1475 1477 1480 1482 1483 1484 1486 1487 1489 1490 1492 1493 1494 1495 1496 1496 1497 1497 1497 1497 1497 1496 1495 1494 1493 1491 1490 1489 1487 1485 1484 1482 1481 1480 1478 1478 1477 1476 1475 1474 1473 1472 1472 1472
1476 1478 1480 1482 1484 1485 1487 1488 1489 1491 1493 1494 1494 1495 1495 1496 1496 1496 1497 1496 1495 1494 1493 1492 1491 1489 1488 1487 1485 1483 1482 1480 1478 1477 1476 1476 1475 1474 1473 1472 1471 1470 1469 1468
1476 1478 1480 1482 1484 1486 1487 1488 1489 1491 1493 1493 1494 1495 1495 1495 1495 1496 1495 1495 1493 1492 1491 1490 1489 1487 1486 1485 1483 1481 1479 1478 1476 1475 1474 1473 1473 1472 1471 1470 1469 1468 1467 1466
1476 1478 1479 1481 1483 1485 1486 1487 1488 1490 1491 1492 1493 1494 1494 1494 1494 1494 1493 1493 1492 1491 1490 1489 1487 1486 1484 1482 1481 1479 1477 1476 1475 1473 1472 1471 1471 1470 1469 1468 1467 1466 1465 1464
1474 1476 1478 1479 1482 1484 1485 1486 1487 1489 1489 1490 1491 1492 1492 1492 1492 1492 1491 1491 1490 1489 1488 1487 1486 1484 1482 1481 1479 1477 1476 1474 1473 1472 1471 1470 1469 1468 1467 1466 1465 1464 1463 1462
1474 1476 1478 1479 1481 1482 1484 1485 1486 1487 1488 1489 1490 1490 1490 1490 1490 1490 1490 1489 1488 1487 1486 1485 1484 1483 1481 1479 1477 1476 1474 1473 1471 1470 1469 1468 1467 1466 1465 1464 1463 1462 1461 1460
1474 1476 1478 1479 1481 1482 1483 1484 1485 1486 1486 1487 1488 1488 1489 1489 1489 1489 1488 1487 1486 1485 1484 1483 1482 1481 1479 1478 1476 1474 1473 1471 1470 1469 1467 1466 1465 1464 1463 1462 1461 1460 1459 1458
1474 1475 1477 1479 1480 1481 1482 1482 1483 1484 1485 1486 1486 1486 1487 1487 1487 1487 1486 1485 1484 1484 1483 1482 1481 1479 1478 1476 1475 1473 1471 1470 1469 1467 1465 1464 1463 1462 1461 1460 1459 1458 1457 1456
1474 1475 1476 1478 1479 1480 1481 1481 1482 1483 1483 1484 1485 1485 1485 1485 1485 1485 1484 1483 1483 1482 1481 1480 1479 1478 1476 1475 1473 1472 1470 1469 1467 1466 1464 1463 1462 1460 1459 1458 1457 1456 1455 1454
1474 1475 1476 1477 1478 1479 1480 1481 1481 1482 1482 1483 1483 1483 1483 1483 1483 1482 1482 1482 1481 1480 1479 1478 1477 1476 1475 1473 1472 1470 1469 1468 1466 1465 1463 1462 1461 1459 1458 1457 1456 1455 1453 1452
1474 1475 1476 1477 1478 1478 1479 1480 1480 1481 1481 1482 1482 1482 1482 1481 1481 1481 1481 1480 1479 1478 1477 1476 1475 1474 1473 1472 1471 1469 1468 1467 1465 1464 1463 1461 1460 1458 1457 1456 1455 1454 1452 1451
1474 1475 1476 1476 1477 1477 1478 1479 1479 1480 1480 1480 1480 1480 1480 1480 1480 1479 1479 1478 1477 1476 1475 1474 1474 1472 1471 1470 1469 1468 1467 1466 1465 1463 1462 1460 1459 1458 1457 1455 1454 1453 1452 1450
1474 1475 1476 1476 1477 1477 1478 1478 1478 1479 1479 1479 1479 1479 1479 1479 1479 1478 1478 1477 1476 1475 1474 1473 1472 1471 1470 1469 1468 1467 1465 1464 1463 1462 1461 1459 1458 1457 1455 1454 1453 1452 1451 1449
1474 1475 1476 1476 1477 1477 1477 1477 1477 1478 1478 1478 1478 1478 1478 1478 1477 1477 1476 1475 1474 1473 1473 1472 1471 1470 1469 1468 1467 1465 1464 1463 1462 1461 1460 1458 1457 1456 1454 1453 1452 1450 1449 1448